CW9865 Weather Reports


time (UTC)temp
C
wind
direction
speed
KPH
gust
KPH
rain 1hr
cm
rain 24hr
cm
rain mn
cm
humidity
%
barometer
mb
20260506201959 10 283 1.6 9.7 0.03 1.42 1.32 97 1004.7
20260506201600 10 282 1.6 9.7 0.03 1.42 1.32 96 1004.4
20260506201459 10 283 1.6 9.7 0.03 1.42 1.32 96 1004.8
20260506200146 10 298 1.6 3.2 0.03 1.42 1.32 96 1004.0
20260506200000 10 298 1.6 3.2 0.03 1.42 1.32 96 1004.5
20260506194614 11 279 0.0 4.8 0.00 1.40 1.30 96 1004.2
20260506194458 11 279 1.6 4.8 0.00 1.40 1.30 95 1004.8
20260506193059 12 278 0.0 4.8 0.00 1.40 1.30 94 1004.0
20260506192959 12 278 1.6 4.8 0.00 1.40 1.30 95 1004.5
20260506191601 13 279 0.0 4.8 0.00 1.40 1.30 98 1003.9
20260506191459 13 156 0.0 0.0 0.00 1.40 1.30 98 1004.5
20260506191000 13 156 0.0 0.0 0.00 1.40 1.30 98 1004.4
20260506190059 13 156 0.0 3.2 0.03 1.40 1.30 98 1003.8
20260506190000 13 156 0.0 3.2 0.03 1.40 1.30 98 1004.4
20260506185002 13 156 0.0 3.2 0.08 1.40 1.30 98 1004.5
20260506184558 13 156 0.0 3.2 0.10 1.40 1.30 98 1003.8
20260506184459 13 156 0.0 3.2 0.10 1.40 1.30 98 1004.4
20260506183959 13 156 0.0 3.2 0.13 1.40 1.30 98 1004.4
20260506183058 13 154 0.0 4.8 0.18 1.40 1.30 99 1003.9
20260506182459 13 119 0.0 4.8 0.20 1.40 1.30 99 1004.5
20260506181559 13 115 0.0 3.2 0.25 1.40 1.30 99 1004.0
20260506181008 13 115 0.0 3.2 0.25 1.40 1.30 99 1004.8
20260506180120 13 115 0.0 0.0 0.25 1.37 1.27 99 1004.1
20260506180116 13 115 0.0 0.0 0.25 1.37 1.27 99 1004.7
20260506175459 12 115 0.0 0.0 0.25 1.35 1.24 98 1004.9
20260506174608 12 115 0.0 0.0 0.23 1.30 1.19 98 1004.2
20260506173959 12 115 0.0 0.0 0.25 1.27 1.17 98 1004.8
20260506173123 12 115 0.0 0.0 0.23 1.22 1.12 98 1004.2
20260506172959 12 115 0.0 0.0 0.25 1.22 1.12 98 1005.0
20260506172500 12 115 0.0 0.0 0.23 1.19 1.09 98 1005.1
20260506171623 12 115 0.0 0.0 0.23 1.14 1.04 98 1004.4
20260506171620 12 115 0.0 0.0 0.23 1.14 1.04 98 1005.1
20260506170958 12 115 0.0 0.0 0.23 1.14 1.04 98 1005.0
20260506170106 11 115 0.0 0.0 0.23 1.12 1.02 98 1004.3
20260506165459 11 115 0.0 0.0 0.23 1.09 0.99 98 1005.2
20260506164558 11 115 0.0 0.0 0.23 1.07 0.97 98 1004.5
20260506164459 11 115 0.0 0.0 0.20 1.04 0.94 98 1005.3
20260506163958 11 115 0.0 0.0 0.18 1.02 0.91 98 1005.2
20260506163106 11 115 0.0 3.2 0.18 0.99 0.89 98 1004.6
20260506163000 11 115 0.0 3.2 0.15 0.97 0.86 98 1005.4
20260506162508 11 115 0.0 4.8 0.15 0.94 0.84 98 1005.4
20260506161600 11 86 0.0 0.0 0.15 0.91 0.81 98 1004.5
20260506161457 11 86 0.0 0.0 0.15 0.91 0.81 98 1005.3
20260506160108 11 86 0.0 3.2 0.18 0.89 0.79 97 1004.4
20260506154558 11 56 0.0 3.2 0.18 0.84 0.71 97 1004.6
20260506154457 11 56 0.0 3.2 0.18 0.84 0.74 97 1005.4
20260506153057 11 65 0.0 1.6 0.20 0.81 0.71 97 1004.8
20260506152958 11 65 0.0 1.6 0.20 0.81 0.71 97 1005.7
20260506152458 11 65 0.0 1.6 0.23 0.79 0.69 97 1005.8
20260506151558 11 65 0.0 4.8 0.25 0.76 0.66 97 1005.0
20260506151457 11 65 0.0 4.8 0.25 0.76 0.66 98 1006.0
20260506151015 11 107 0.0 9.7 0.25 0.74 0.64 98 1006.0
20260506145957 11 70 0.0 1.6 0.28 0.71 0.61 98 1006.0
20260506145457 11 71 0.0 3.2 0.28 0.69 0.58 98 1006.0
20260506144558 11 71 0.0 0.0 0.28 0.66 0.56 98 1005.4
20260506144457 11 71 0.0 0.0 0.28 0.66 0.56 97 1006.3
20260506143058 10 71 0.0 1.6 0.25 0.61 0.51 97 1005.6
20260506142957 10 71 0.0 1.6 0.25 0.61 0.51 97 1006.5
20260506142500 10 71 0.0 1.6 0.20 0.56 0.46 97 1006.7
20260506141557 11 71 0.0 0.0 0.18 0.51 0.41 97 1006.0
20260506140059 11 71 0.0 1.6 0.10 0.43 0.33 97 1006.1
20260506135959 11 71 0.0 3.2 0.10 0.43 0.33 97 1007.0
20260506135458 11 71 0.0 3.2 0.08 0.41 0.30 97 1006.9
20260506134618 11 71 0.0 0.0 0.08 0.38 0.28 97 1006.0
20260506133957 11 71 0.0 3.2 0.05 0.36 0.25 97 1006.7
20260506133058 11 71 0.0 0.0 0.08 0.36 0.25 97 1005.7
20260506132957 10 71 0.0 0.0 0.08 0.36 0.25 97 1006.5
20260506132457 10 71 0.0 0.0 0.08 0.36 0.25 97 1006.5
20260506131610 10 71 0.0 0.0 0.08 0.33 0.23 97 1005.5
20260506131503 10 71 0.0 0.0 0.10 0.33 0.23 97 1005.5
20260506130958 10 71 0.0 0.0 0.10 0.33 0.23 97 1006.3
20260506130058 10 71 0.0 0.0 0.13 0.33 0.23 97 1005.6
20260506125958 10 71 0.0 0.0 0.15 0.33 0.23 97 1006.4
20260506124600 10 71 0.0 0.0 0.15 0.30 0.20 97 1005.8
20260506124457 10 71 0.0 0.0 0.15 0.30 0.20 97 1006.7
20260506123957 10 71 0.0 1.6 0.15 0.30 0.20 96 1006.8
20260506123057 10 71 0.0 0.0 0.15 0.28 0.18 96 1006.0
20260506122957 10 71 0.0 0.0 0.15 0.28 0.18 96 1006.9
20260506122530 10 71 0.0 3.2 0.15 0.28 0.18 96 1007.1
20260506121606 11 71 0.0 4.8 0.13 0.25 0.15 96 1006.3
20260506121457 11 94 0.0 0.0 0.10 0.23 0.13 96 1007.4
20260506120022 11 94 0.0 0.0 0.05 0.18 0.08 97 1007.3
20260506115458 11 94 0.0 1.6 0.05 0.18 0.08 97 1007.3
20260506114558 10 94 0.0 0.0 0.05 0.15 0.05 97 1006.2
20260506114500 10 94 0.0 0.0 0.05 0.15 0.05 97 1007.2
20260506113957 10 94 0.0 0.0 0.05 0.15 0.05 97 1007.1
20260506113058 10 94 0.0 0.0 0.03 0.13 0.03 97 1006.1
20260506112957 10 94 0.0 0.0 0.03 0.13 0.03 96 1007.0
20260506112458 10 94 0.0 0.0 0.03 0.13 0.03 96 1006.9
20260506111613 10 94 0.0 0.0 0.03 0.13 0.03 96 1006.0
20260506111457 10 94 0.0 3.2 0.03 0.13 0.03 96 1006.9
20260506110958 10 94 0.0 4.8 0.03 0.13 0.03 96 1006.8
20260506110059 10 171 0.0 4.8 0.03 0.13 0.03 95 1005.9
20260506110000 10 171 0.0 4.8 0.03 0.13 0.03 95 1006.8
20260506105458 10 290 0.0 0.0 0.03 0.13 0.03 95 1006.7
20260506105000 10 290 0.0 3.2 0.00 0.10 0.00 95 1006.8
20260506103957 10 290 0.0 3.2 0.00 0.10 0.00 95 1006.8
20260506103105 10 290 0.0 0.0 0.00 0.10 0.00 94 1006.0
20260506101957 10 290 0.0 3.2 0.00 0.10 0.00 94 1006.5
20260506101557 10 290 0.0 3.2 0.00 0.10 0.00 94 1005.8
20260506100101 10 290 0.0 0.0 0.00 0.10 0.00 93 1005.9
20260506095458 10 290 0.0 0.0 0.00 0.18 0.00 93 1006.7
20260506094958 10 290 0.0 0.0 0.00 0.18 0.00 93 1006.7
20260506093958 10 290 0.0 0.0 0.00 0.18 0.00 92 1006.6
20260506093458 10 290 0.0 0.0 0.00 0.18 0.00 92 1006.4
20260506092458 10 290 0.0 0.0 0.00 0.18 0.00 92 1006.6
20260506091958 10 290 0.0 0.0 0.00 0.18 0.00 92 1006.4
20260506091558 10 290 0.0 0.0 0.00 0.18 0.00 92 1005.5
20260506091003 10 290 0.0 0.0 0.00 0.18 0.00 92 1006.5
20260506090458 10 290 0.0 3.2 0.00 0.18 0.00 92 1006.3
20260506085000 10 290 0.0 0.0 0.00 0.18 0.00 92 1007.1
20260506084605 10 290 0.0 0.0 0.00 0.18 0.00 92 1006.0
20260506083957 10 290 0.0 0.0 0.00 0.18 0.00 92 1006.9
20260506083458 10 290 0.0 0.0 0.00 0.18 0.00 91 1007.2
20260506082457 10 290 0.0 0.0 0.00 0.18 0.00 91 1007.0
20260506081658 10 290 0.0 0.0 0.00 0.18 0.00 91 1006.2
20260506080957 10 290 0.0 0.0 0.00 0.18 0.00 91 1007.4
20260506080458 10 290 0.0 0.0 0.00 0.18 0.00 91 1007.3
20260506073456 10 290 0.0 0.0 0.00 0.18 0.00 90 1007.8
20260506072457 10 290 0.0 0.0 0.00 0.18 0.00 90 1007.9
20260506071957 10 290 0.0 0.0 0.00 0.18 0.00 90 1007.8
20260506070957 10 290 0.0 0.0 0.00 0.18 0.00 89 1007.7
20260506070457 10 290 0.0 0.0 0.00 0.18 0.00 89 1007.5
20260506070124 10 290 0.0 0.0 0.00 0.18 0.00 89 1006.8
20260506062000 10 290 0.0 0.0 0.00 0.18 0.00 88 1008.1
20260506061557 10 290 0.0 0.0 0.00 0.18 0.00 88 1007.2
20260506061458 10 290 0.0 0.0 0.00 0.18 0.00 88 1008.1
20260506060456 10 290 0.0 3.2 0.00 0.18 0.00 89 1008.2
20260506044602 11 290 0.0 1.6 0.00 0.18 0.00 89 1007.8
20260506044501 11 290 0.0 1.6 0.00 0.18 0.00 88 1008.6
20260506044014 11 290 0.0 1.6 0.00 0.18 0.00 88 1008.6
20260506043104 11 290 0.0 3.2 0.00 0.18 0.00 87 1007.7
20260506043000 11 290 0.0 3.2 0.00 0.18 0.00 87 1008.5
20260506042501 11 290 0.0 3.2 0.00 0.18 0.00 87 1008.5
20260506041621 11 290 0.0 3.2 0.00 0.18 0.00 87 1007.6
20260506041504 11 290 0.0 3.2 0.00 0.18 0.00 87 1007.7
20260506041002 11 290 0.0 4.8 0.00 0.18 0.00 87 1008.6
20260506040005 11 279 1.6 3.2 0.00 0.18 0.00 87 1009.0
20260506035502 11 279 0.0 3.2 0.00 0.18 0.18 86 1008.7
20260506034603 12 277 0.0 3.2 0.00 0.18 0.18 85 1007.8
20260506034500 12 277 0.0 3.2 0.00 0.18 0.18 85 1008.7
20260506033100 12 281 0.0 6.4 0.00 0.18 0.18 85 1008.0
20260506033038 12 281 1.6 6.4 0.00 0.18 0.18 86 1009.0
20260506031602 12 275 1.6 4.8 0.00 0.18 0.18 85 1007.9
20260506031500 12 272 1.6 4.8 0.00 0.18 0.18 85 1008.9
20260506031001 12 271 1.6 8.0 0.00 0.18 0.18 85 1008.8
20260506030100 12 288 1.6 14.5 0.00 0.18 0.18 84 1007.7
20260506030003 12 288 1.6 14.5 0.00 0.18 0.18 85 1007.8
20260506025008 12 288 1.6 6.4 0.00 0.18 0.18 85 1008.5
20260506024607 12 287 1.6 4.8 0.00 0.18 0.18 84 1007.6
20260506024500 13 287 1.6 4.8 0.00 0.18 0.18 84 1008.4
20260506024000 13 302 1.6 4.8 0.00 0.18 0.18 85 1008.4
20260506023105 13 318 0.0 14.5 0.03 0.18 0.18 87 1007.6
20260506023000 13 318 1.6 14.5 0.03 0.18 0.18 87 1008.4
20260506022501 13 327 1.6 14.5 0.03 0.18 0.18 88 1008.5
20260506021600 14 286 0.0 8.0 0.03 0.18 0.18 89 1007.7
20260506021500 14 286 1.6 8.0 0.03 0.18 0.18 89 1008.6
20260506021038 14 284 1.6 8.0 0.03 0.18 0.18 89 1008.7
20260506020111 15 300 1.6 6.4 0.03 0.18 0.18 87 1007.6
20260506020002 15 300 0.0 6.4 0.03 0.18 0.18 87 1008.5
20260506015501 15 248 0.0 3.2 0.03 0.18 0.18 87 1008.3
20260506014615 15 248 0.0 3.2 0.03 0.18 0.18 87 1007.1
20260506014610 15 248 0.0 3.2 0.03 0.18 0.18 87 1007.8
20260506013104 15 248 0.0 3.2 0.00 0.15 0.15 85 1006.8
20260506013000 15 248 0.0 3.2 0.00 0.15 0.15 85 1007.7
20260506012501 15 233 0.0 1.6 0.00 0.15 0.15 85 1007.6
20260506012001 15 233 0.0 0.0 0.00 0.15 0.15 85 1007.6
20260506011501 15 233 0.0 0.0 0.00 0.15 0.15 86 1007.6
20260506010502 15 233 0.0 4.8 0.00 0.15 0.15 86 1007.4
20260506005500 15 230 0.0 3.2 0.00 0.15 0.15 86 1007.1
20260506005022 15 237 0.0 1.6 0.00 0.15 0.15 87 1007.1
20260506004606 15 237 0.0 3.2 0.00 0.15 0.15 86 1006.1
20260506004000 15 237 0.0 6.4 0.00 0.15 0.15 86 1007.0
20260506003100 15 233 0.0 4.8 0.00 0.15 0.15 85 1006.1
20260506002001 15 248 1.6 6.4 0.00 0.15 0.15 83 1007.2
20260506001605 15 238 0.0 6.4 0.00 0.15 0.15 83 1006.2
20260506000959 15 262 0.0 3.2 0.00 0.15 0.15 84 1007.0
20260506000122 15 271 0.0 4.8 0.00 0.15 0.15 83 1005.6
20260506000002 15 227 0.0 3.2 0.00 0.15 0.15 83 1006.6
20260505235500 15 227 0.0 3.2 0.00 0.15 0.15 83 1006.5
20260505235000 15 227 0.0 3.2 0.00 0.15 0.15 83 1006.4
20260505234606 15 228 0.0 3.2 0.00 0.15 0.15 83 1005.5
20260505233959 15 228 0.0 3.2 0.00 0.15 0.15 82 1006.4
20260505233459 15 228 0.0 3.2 0.00 0.15 0.15 83 1006.4
20260505233102 15 228 0.0 3.2 0.00 0.15 0.15 83 1005.5
20260505232616 15 228 0.0 3.2 0.00 0.15 0.15 84 1006.3
20260505232001 15 231 0.0 8.0 0.00 0.15 0.15 83 1006.3
20260505231613 15 231 1.6 8.0 0.00 0.15 0.15 82 1005.3
20260505231045 15 214 0.0 3.2 0.00 0.15 0.15 83 1006.2
20260505230459 15 229 0.0 4.8 0.00 0.15 0.15 83 1006.2
20260505230008 15 229 0.0 6.4 0.03 0.15 0.15 83 1005.2
20260505225500 15 196 1.6 12.9 0.03 0.15 0.15 84 1006.1
20260505224959 15 253 1.6 12.9 0.03 0.15 0.15 85 1006.1
20260505224055 15 196 0.0 4.8 0.03 0.15 0.15 89 1006.0
20260505223508 15 185 0.0 4.8 0.03 0.15 0.15 89 1005.8
20260505223104 15 245 0.0 4.8 0.03 0.15 0.15 88 1005.1
20260505222500 15 287 0.0 6.4 0.05 0.15 0.15 88 1006.2
20260505222000 15 302 0.0 6.4 0.08 0.15 0.15 87 1006.1
20260505221603 15 225 0.0 3.2 0.08 0.15 0.15 90 1005.4
20260505221000 15 279 0.0 4.8 0.08 0.15 0.15 89 1006.5
20260505220500 15 279 1.6 11.3 0.08 0.15 0.15 89 1006.5
20260505220101 15 276 0.0 11.3 0.05 0.13 0.13 88 1005.5
20260505220004 15 276 1.6 11.3 0.05 0.13 0.13 87 1006.6
20260505220002 15 276 1.6 11.3 0.05 0.13 0.13 87 1005.6
20260505215000 15 283 3.2 14.5 0.05 0.13 0.13 88 1007.0
20260505214559 15 284 1.6 14.5 0.05 0.13 0.13 89 1006.0
20260505213459 15 273 1.6 3.2 0.05 0.13 0.13 88 1006.4
20260505213059 15 273 0.0 6.4 0.05 0.13 0.13 87 1005.5
20260505212958 15 273 1.6 6.4 0.05 0.13 0.13 87 1006.7
20260505212458 15 273 3.2 11.3 0.03 0.10 0.10 84 1006.8
20260505211559 15 287 3.2 11.3 0.00 0.08 0.08 82 1005.2
20260505211459 15 275 3.2 11.3 0.00 0.08 0.08 82 1006.1
20260505211000 16 296 3.2 6.4 0.00 0.08 0.08 80 1005.9
20260505210507 16 314 3.2 8.0 0.00 0.08 0.08 78 1005.4
20260505210100 17 315 3.2 8.0 0.00 0.08 0.08 74 1004.2
20260505210001 17 315 3.2 8.0 0.00 0.08 0.08 72 1004.3
20260505205500 18 313 3.2 12.9 0.00 0.08 0.08 68 1005.2
20260505204603 21 302 6.4 16.1 0.00 0.08 0.08 57 1004.5
20260505204502 21 312 4.8 16.1 0.00 0.08 0.08 54 1005.4
20260505204000 22 264 3.2 14.5 0.00 0.08 0.08 43 1005.1
20260505203108 23 286 0.0 9.7 0.00 0.08 0.08 42 1003.2
20260505202959 23 287 1.6 9.7 0.00 0.08 0.08 41 1004.1